Tracking 35331 objects as of 15-Sep-2026
HD Live streaming from Space Station
objects crossing your sky now

COSMOS 1408 DEB


COSMOS 1408 DEB is no longer on orbit


NORAD ID: 49682
Int'l Code: 1982-092GB
Launch date: September 16, 1982
Source: Commonwealth of Independent States (former USSR) (CIS)
Launch site: PLESETSK MISSILE AND SPACE COMPLEX (PKMTR)
Decay date: 2023-07-18

Note: This is SATELLITE DEBRIS
Your satellite tracking list
Your tracking list is empty




NASA's NSSDC Master Catalog

Two Line Element Set (TLE):
1 49682U 82092GB  23198.57074360  .15102058 -12591-5  12671-2 0  9990
2 49682  82.5708 244.4430 0010919 264.5010  95.5044 16.39530214 91618
Source of the keplerian elements: AFSPC